New Bedford, MA

10:10 PM EST on January 17, 2018 (GMT -0500)
New Bedford Regional

Weather History for KEWB - August, 2014

Change the Weather History Date:

Friday, August 29, 2014

  Actual Average Record
Temperature  
Mean Temperature 63 °F -  
Max Temperature 75 °F 79 °F 95 °F (1973)
Min Temperature 53 °F 64 °F 44 °F (1982)
Degree Days  
Heating Degree Days 2    
Growing Degree Days 13 (Base 50)    
Moisture  
Dew Point 52 °F    
Average Humidity 69    
Maximum Humidity 94    
Minimum Humidity 48    
Precipitation  
Precipitation 0.00 in - - ()
Sea Level Pressure  
Sea Level Pressure 30.15 in    
Wind  
Wind Speed 3 mph (NE)    
Max Wind Speed 9 mph    
Max Gust Speed 18 mph    
Visibility 10 miles    
Events      
Averages and records for this station are not official NWS values.
T = Trace of Precipitation, MM = Missing Value Source: NWS Daily Summary

Daily Weather History Graph

Daily Weather History Graph

Search for Another Location

Airport or City:

Trip Planner

Search our weather history database for the weather conditions in past years. The results will help you decide how hot, cold, wet, or windy it might be!

Date:

Astronomy

Aug. 29, 2014 Rise Set
Actual Time 6:06 AM EDT 7:22 PM EDT
Civil Twilight 5:37 AM EDT 7:50 PM EDT
Nautical Twilight 5:03 AM EDT 8:25 PM EDT
Astronomical Twilight 4:27 AM EDT 9:01 PM EDT
Moon 9:56 AM EDT (8/29) 9:13 PM EDT (8/29)
Length of Visible Light 14h 12m
Length of Day
13h 15m
Waxing Crescent, 15% of the Moon is Illuminated
Aug 29
Waxing Crescent
Sep 2
First Quarter
Sep 8
Full
Sep 15
Last Quarter
Sep 24
New

Hourly Weather History & Observations

Time (EDT) Temp. Dew Point Humidity Pressure Visibility Wind Dir Wind Speed Gust Speed Precip Events Conditions
12:53 AM 60.1 °F 48.9 °F 67% 30.00 in 10.0 mi Calm Calm - N/A   Clear
1:53 AM 57.9 °F 48.9 °F 72% 30.02 in 10.0 mi Calm Calm - N/A   Clear
2:53 AM 57.0 °F 48.9 °F 74% 30.02 in 10.0 mi Variable 3.5 mph - N/A   Clear
3:53 AM 55.9 °F 48.9 °F 77% 30.04 in 10.0 mi Calm Calm - N/A   Clear
4:53 AM 54.0 °F 48.9 °F 83% 30.04 in 10.0 mi NNW 3.5 mph - N/A   Clear
5:53 AM 53.1 °F 48.9 °F 86% 30.07 in 10.0 mi Calm Calm - N/A   Clear
6:53 AM 55.0 °F 50.0 °F 83% 30.10 in 10.0 mi Calm Calm - N/A   Clear
7:53 AM 61.0 °F 52.0 °F 72% 30.12 in 10.0 mi Variable 4.6 mph - N/A   Clear
8:53 AM 66.0 °F 53.1 °F 63% 30.14 in 10.0 mi Variable 4.6 mph - N/A   Clear
9:53 AM 70.0 °F 53.1 °F 55% 30.15 in 10.0 mi North 8.1 mph - N/A   Clear
10:53 AM 71.6 °F 53.6 °F 53% 30.16 in 10.0 mi ENE 6.9 mph - N/A   Scattered Clouds
11:53 AM 73.9 °F 54.0 °F 50% 30.17 in 10.0 mi North - - N/A   Scattered Clouds
12:53 PM 73.9 °F 54.0 °F 50% 30.17 in 10.0 mi NNE 9.2 mph - N/A   Mostly Cloudy
1:53 PM 72.0 °F 55.0 °F 55% 30.18 in 10.0 mi Variable 6.9 mph - N/A   Scattered Clouds
2:53 PM 73.0 °F 55.0 °F 53% 30.18 in 10.0 mi NE 8.1 mph 16.1 mph N/A   Scattered Clouds
3:53 PM 73.4 °F 55.4 °F 53% 30.18 in 10.0 mi Variable 5.8 mph 18.4 mph N/A   Clear
4:53 PM 72.0 °F 51.1 °F 48% 30.19 in 10.0 mi NE 8.1 mph - N/A   Clear
5:53 PM 70.0 °F 53.1 °F 55% 30.20 in 10.0 mi East 9.2 mph - N/A   Clear
6:53 PM 66.0 °F 54.0 °F 65% 30.22 in 10.0 mi East 8.1 mph - N/A   Clear
7:53 PM 63.0 °F 52.0 °F 67% 30.23 in 10.0 mi East 3.5 mph - N/A   Clear
8:53 PM 57.0 °F 53.1 °F 87% 30.25 in 10.0 mi Calm Calm - N/A   Clear
9:53 PM 55.0 °F 53.1 °F 93% 30.26 in 10.0 mi Calm Calm - N/A   Clear
10:53 PM 53.6 °F 51.8 °F 94% 30.27 in 10.0 mi Calm Calm - N/A   Partly Cloudy
11:53 PM 53.1 °F 51.1 °F 93% 30.27 in 10.0 mi Calm Calm - N/A   Clear